User: anonymous   Login
Location: Oshawa
(43.9000°N, 78.8670°W)
Time: 03:22:05
(UTC-04:00)
Language:

Iridium 46 - Orbit

View from above orbital plane
View from above orbital plane
View from above satellite
View from above satellite

Ground track
Ground track

The orbit data is extracted from the following two-line orbital elements,

1 24905U 97043C   17268.89939580 +.00000023 +00000-0 +10870-5 0  9994
2 24905 086.4013 213.3054 0002567 069.2643 290.8827 14.34214509052266
Epoch (UTC): 25 September 2017 21:35:07
Eccentricity: 0.0002567
inclination: 86.4013°
perigee height: 776 km
apogee height: 779 km
right ascension of ascending node: 213.3054°
argument of perigee: 69.2643°
revolutions per day: 14.34214509
mean anomaly at epoch: 290.8827°
orbit number at epoch: 5226

The dashed part of the orbit path shows where the satellite is in the earth's shadow,  

DLR